Time,TemperatureF,DewpointF,PressureIn,WindDirection,WindDirectionDegrees,WindSpeedMPH,WindSpeedGustMPH,Humidity,HourlyPrecipIn,Conditions,Clouds,dailyrainin,SoftwareType,DateUTC
2013-05-16 00:01:00,63.9,57.6,30.13,SE,137,0.0,0.0,80,0.00,CLR,OVC,0.00,WeatherDisplay:10.37,2013-05-16 04:01:00,
2013-05-16 00:06:00,63.8,57.9,30.13,SE,137,0.0,0.0,81,0.00,CLR,OVC,0.00,WeatherDisplay:10.37,2013-05-16 04:06:00,
2013-05-16 00:11:00,63.7,57.8,30.13,SE,135,0.0,0.0,81,0.00,CLR,OVC,0.00,WeatherDisplay:10.37,2013-05-16 04:11:00,
2013-05-16 00:16:00,63.6,58.0,30.13,SE,137,0.0,0.0,82,0.00,CLR,OVC,0.00,WeatherDisplay:10.37,2013-05-16 04:16:00,
2013-05-16 00:21:00,63.4,58.1,30.12,SE,137,0.0,0.0,83,0.00,CLR,OVC,0.00,WeatherDisplay:10.37,2013-05-16 04:21:00,
2013-05-16 00:26:00,63.0,57.8,30.12,SE,135,0.0,0.0,83,0.00,CLR,OVC,0.00,WeatherDisplay:10.37,2013-05-16 04:26:00,
2013-05-16 00:31:00,62.7,57.8,30.12,SE,137,0.0,0.0,84,0.00,CLR,OVC,0.00,WeatherDisplay:10.37,2013-05-16 04:31:00,
2013-05-16 00:36:00,62.3,57.4,30.12,SE,137,0.0,0.0,84,0.00,CLR,OVC,0.00,WeatherDisplay:10.37,2013-05-16 04:36:00,
2013-05-16 00:41:00,61.9,57.0,30.12,SE,137,1.1,1.1,84,0.00,CLR,OVC,0.00,WeatherDisplay:10.37,2013-05-16 04:41:00,
2013-05-16 00:46:00,61.7,57.1,30.12,SE,135,1.1,0.0,85,0.00,CLR,OVC,0.00,WeatherDisplay:10.37,2013-05-16 04:46:00,
2013-05-16 00:51:00,61.5,56.9,30.12,SE,135,1.1,0.0,85,0.00,CLR,OVC,0.00,WeatherDisplay:10.37,2013-05-16 04:51:00,
2013-05-16 00:56:00,61.5,56.9,30.11,SE,135,0.0,0.0,85,0.00,CLR,OVC,0.00,WeatherDisplay:10.37,2013-05-16 04:56:00,
2013-05-16 01:01:00,61.3,56.8,30.11,SE,135,0.0,0.0,85,0.00,CLR,OVC,0.00,WeatherDisplay:10.37,2013-05-16 05:01:00,
2013-05-16 01:06:00,61.1,56.6,30.11,SE,135,0.0,0.0,85,0.00,CLR,OVC,0.00,WeatherDisplay:10.37,2013-05-16 05:06:00,
2013-05-16 01:11:00,60.9,56.7,30.11,SE,137,0.0,0.0,86,0.00,CLR,OVC,0.00,WeatherDisplay:10.37,2013-05-16 05:11:00,
2013-05-16 01:16:00,60.7,56.5,30.11,SE,137,0.0,0.0,86,0.00,CLR,OVC,0.00,WeatherDisplay:10.37,2013-05-16 05:16:00,
2013-05-16 01:21:00,60.6,56.7,30.11,SE,137,0.0,0.0,87,0.00,CLR,OVC,0.00,WeatherDisplay:10.37,2013-05-16 05:21:00,
2013-05-16 01:26:00,60.8,57.2,30.10,SE,135,0.0,0.0,88,0.00,CLR,OVC,0.00,WeatherDisplay:10.37,2013-05-16 05:26:00,
2013-05-16 01:31:00,60.9,57.3,30.10,SE,137,0.0,0.0,88,0.00,CLR,OVC,0.00,WeatherDisplay:10.37,2013-05-16 05:31:00,
2013-05-16 01:36:00,60.9,57.3,30.10,SE,137,0.0,0.0,88,0.00,CLR,OVC,0.00,WeatherDisplay:10.37,2013-05-16 05:36:00,
2013-05-16 01:41:00,61.1,57.5,30.10,SE,137,0.0,0.0,88,0.00,CLR,OVC,0.00,WeatherDisplay:10.37,2013-05-16 05:41:00,
2013-05-16 01:46:00,61.1,57.5,30.10,SE,137,0.0,0.0,88,0.00,CLR,OVC,0.00,WeatherDisplay:10.37,2013-05-16 05:46:00,
2013-05-16 01:51:00,61.1,57.5,30.10,SE,137,0.0,0.0,88,0.00,CLR,OVC,0.00,WeatherDisplay:10.37,2013-05-16 05:51:00,
2013-05-16 01:56:00,60.9,57.3,30.10,SE,137,0.0,0.0,88,0.00,CLR,OVC,0.00,WeatherDisplay:10.37,2013-05-16 05:56:00,
2013-05-16 02:01:00,60.7,57.1,30.09,SE,137,0.0,0.0,88,0.00,CLR,OVC,0.00,WeatherDisplay:10.37,2013-05-16 06:01:00,
2013-05-16 02:06:00,60.5,56.9,30.10,SE,137,0.0,0.0,88,0.00,CLR,OVC,0.00,WeatherDisplay:10.37,2013-05-16 06:06:00,
2013-05-16 02:11:00,60.2,56.6,30.10,SE,137,0.0,0.0,88,0.00,CLR,OVC,0.00,WeatherDisplay:10.37,2013-05-16 06:11:00,
2013-05-16 02:16:00,60.0,56.4,30.10,SE,137,0.0,0.0,88,0.00,CLR,OVC,0.00,WeatherDisplay:10.37,2013-05-16 06:16:00,
2013-05-16 02:19:00,59.8,56.2,30.09,SE,137,0.0,0.0,88,0.00,CLR,OVC,0.00,WeatherDisplay:10.37,2013-05-16 06:19:00,
2013-05-16 02:21:00,59.8,56.2,30.09,SE,137,0.0,0.0,88,0.00,CLR,OVC,0.00,WeatherDisplay:10.37,2013-05-16 06:21:00,
2013-05-16 02:26:00,59.8,56.2,30.09,SE,137,0.0,0.0,88,0.00,CLR,OVC,0.00,WeatherDisplay:10.37,2013-05-16 06:26:00,
2013-05-16 02:32:00,59.8,56.6,30.09,SE,137,0.0,0.0,89,0.00,CLR,OVC,0.00,WeatherDisplay:10.37,2013-05-16 06:32:00,
2013-05-16 02:37:00,59.7,56.5,30.09,SE,137,0.0,0.0,89,0.00,CLR,OVC,0.00,WeatherDisplay:10.37,2013-05-16 06:37:00,
2013-05-16 02:42:00,59.5,56.3,30.09,SE,137,0.0,0.0,89,0.00,CLR,OVC,0.00,WeatherDisplay:10.37,2013-05-16 06:42:00,
2013-05-16 02:47:00,59.3,56.1,30.09,SE,137,0.0,0.0,89,0.00,CLR,OVC,0.00,WeatherDisplay:10.37,2013-05-16 06:47:00,
2013-05-16 02:52:00,59.0,55.8,30.09,SE,135,0.0,0.0,89,0.00,CLR,OVC,0.00,WeatherDisplay:10.37,2013-05-16 06:52:00,
2013-05-16 02:57:00,58.6,55.4,30.09,SE,137,0.0,0.0,89,0.00,CLR,OVC,0.00,WeatherDisplay:10.37,2013-05-16 06:57:00,
2013-05-16 03:02:00,58.5,55.3,30.09,SE,137,0.0,0.0,89,0.00,CLR,OVC,0.00,WeatherDisplay:10.37,2013-05-16 07:02:00,
2013-05-16 03:07:00,58.6,55.4,30.09,SE,137,0.0,0.0,89,0.00,CLR,OVC,0.00,WeatherDisplay:10.37,2013-05-16 07:07:00,
2013-05-16 03:12:00,58.6,55.4,30.09,SE,135,0.0,0.0,89,0.00,CLR,OVC,0.00,WeatherDisplay:10.37,2013-05-16 07:12:00,
2013-05-16 03:17:00,58.6,55.4,30.09,SE,135,0.0,0.0,89,0.00,CLR,OVC,0.00,WeatherDisplay:10.37,2013-05-16 07:17:00,
2013-05-16 03:22:00,58.4,55.2,30.08,SE,137,0.0,0.0,89,0.00,CLR,OVC,0.00,WeatherDisplay:10.37,2013-05-16 07:22:00,
2013-05-16 03:27:00,58.3,55.4,30.08,SE,137,0.0,0.0,90,0.00,CLR,OVC,0.00,WeatherDisplay:10.37,2013-05-16 07:27:00,
2013-05-16 03:32:00,58.3,55.4,30.08,SE,136,0.0,0.0,90,0.00,CLR,OVC,0.00,WeatherDisplay:10.37,2013-05-16 07:32:00,
2013-05-16 03:37:00,58.2,55.3,30.08,SE,137,0.0,0.0,90,0.00,CLR,OVC,0.00,WeatherDisplay:10.37,2013-05-16 07:37:00,
2013-05-16 03:42:00,58.2,55.3,30.08,SE,137,0.0,0.0,90,0.00,CLR,OVC,0.00,WeatherDisplay:10.37,2013-05-16 07:42:00,
2013-05-16 03:47:00,58.0,55.1,30.08,SE,137,0.0,0.0,90,0.00,CLR,OVC,0.00,WeatherDisplay:10.37,2013-05-16 07:47:00,
2013-05-16 03:52:00,57.9,55.0,30.08,SE,137,0.0,0.0,90,0.00,CLR,OVC,0.00,WeatherDisplay:10.37,2013-05-16 07:52:00,
2013-05-16 03:57:00,57.6,54.7,30.08,SE,137,0.0,0.0,90,0.00,CLR,OVC,0.00,WeatherDisplay:10.37,2013-05-16 07:57:00,
2013-05-16 04:02:00,57.4,54.5,30.08,SE,137,0.0,0.0,90,0.00,CLR,OVC,0.00,WeatherDisplay:10.37,2013-05-16 08:02:00,
2013-05-16 04:07:00,57.2,54.3,30.08,SE,137,0.0,0.0,90,0.00,CLR,OVC,0.00,WeatherDisplay:10.37,2013-05-16 08:07:00,
2013-05-16 04:12:00,57.1,54.2,30.08,SE,137,0.0,0.0,90,0.00,CLR,OVC,0.00,WeatherDisplay:10.37,2013-05-16 08:12:00,
2013-05-16 04:17:00,57.2,54.3,30.07,SE,137,0.0,0.0,90,0.00,CLR,OVC,0.00,WeatherDisplay:10.37,2013-05-16 08:17:00,
2013-05-16 04:22:00,57.5,54.6,30.08,SE,137,0.0,0.0,90,0.00,CLR,OVC,0.00,WeatherDisplay:10.37,2013-05-16 08:22:00,
2013-05-16 04:27:00,57.6,54.7,30.08,SE,137,0.0,0.0,90,0.00,CLR,OVC,0.00,WeatherDisplay:10.37,2013-05-16 08:27:00,
2013-05-16 04:32:00,57.5,54.6,30.08,SE,137,0.0,0.0,90,0.00,CLR,OVC,0.00,WeatherDisplay:10.37,2013-05-16 08:32:00,
2013-05-16 04:37:00,57.3,54.4,30.08,SE,135,0.0,0.0,90,0.00,CLR,OVC,0.00,WeatherDisplay:10.37,2013-05-16 08:37:00,
2013-05-16 04:42:00,57.3,54.4,30.08,SE,137,0.0,0.0,90,0.00,CLR,OVC,0.00,WeatherDisplay:10.37,2013-05-16 08:42:00,
2013-05-16 04:47:00,57.0,54.1,30.08,SE,137,0.0,0.0,90,0.00,CLR,OVC,0.00,WeatherDisplay:10.37,2013-05-16 08:47:00,
2013-05-16 04:52:00,56.9,54.0,30.08,SE,137,0.0,0.0,90,0.00,CLR,OVC,0.00,WeatherDisplay:10.37,2013-05-16 08:52:00,
2013-05-16 04:57:00,56.8,53.9,30.08,SE,137,0.0,0.0,90,0.00,CLR,OVC,0.00,WeatherDisplay:10.37,2013-05-16 08:57:00,
2013-05-16 05:02:00,56.7,53.8,30.08,SSW,196,0.0,0.0,90,0.00,CLR,OVC,0.00,WeatherDisplay:10.37,2013-05-16 09:02:00,
2013-05-16 05:07:00,56.8,54.2,30.09,NNW,336,0.0,0.1,91,0.00,CLR,OVC,0.00,WeatherDisplay:10.37,2013-05-16 09:07:00,
2013-05-16 05:12:00,56.6,54.0,30.08,NNW,336,0.0,0.0,91,0.00,CLR,OVC,0.00,WeatherDisplay:10.37,2013-05-16 09:12:00,
2013-05-16 05:17:00,56.5,53.9,30.08,NNW,335,0.0,0.0,91,0.00,CLR,OVC,0.00,WeatherDisplay:10.37,2013-05-16 09:17:00,
2013-05-16 05:22:00,56.4,53.8,30.08,NNW,336,1.1,0.0,91,0.00,CLR,OVC,0.00,WeatherDisplay:10.37,2013-05-16 09:22:00,
2013-05-16 05:27:00,56.4,53.8,30.08,NNW,336,0.0,0.0,91,0.00,CLR,OVC,0.00,WeatherDisplay:10.37,2013-05-16 09:27:00,
2013-05-16 05:32:00,56.5,53.9,30.08,NNW,336,0.0,0.0,91,0.00,CLR,OVC,0.00,WeatherDisplay:10.37,2013-05-16 09:32:00,
2013-05-16 05:37:00,56.7,54.1,30.08,NNW,335,0.0,0.0,91,0.00,CLR,OVC,0.00,WeatherDisplay:10.37,2013-05-16 09:37:00,
2013-05-16 05:42:00,56.8,54.2,30.08,NNW,336,0.0,0.0,91,0.00,CLR,OVC,0.00,WeatherDisplay:10.37,2013-05-16 09:42:00,
2013-05-16 05:47:00,56.7,54.1,30.08,NNW,335,0.0,0.0,91,0.00,CLR,OVC,0.00,WeatherDisplay:10.37,2013-05-16 09:47:00,
2013-05-16 05:52:00,56.5,53.9,30.08,NNW,335,0.0,0.0,91,0.00,CLR,OVC,0.00,WeatherDisplay:10.37,2013-05-16 09:52:00,
2013-05-16 05:57:00,56.4,53.8,30.08,NNW,336,0.0,0.0,91,0.00,CLR,OVC,0.00,WeatherDisplay:10.37,2013-05-16 09:57:00,
2013-05-16 06:02:00,56.2,53.6,30.09,NNW,336,0.0,0.0,91,0.00,CLR,OVC,0.00,WeatherDisplay:10.37,2013-05-16 10:02:00,
2013-05-16 06:07:00,56.2,53.6,30.09,NNW,330,1.1,0.0,91,0.00,CLR,OVC,0.00,WeatherDisplay:10.37,2013-05-16 10:07:00,
2013-05-16 06:12:00,56.3,53.7,30.09,NNW,330,0.0,0.0,91,0.00,CLR,OVC,0.00,WeatherDisplay:10.37,2013-05-16 10:12:00,
2013-05-16 06:17:00,56.1,53.5,30.09,NNW,329,0.0,0.0,91,0.00,CLR,OVC,0.00,WeatherDisplay:10.37,2013-05-16 10:17:00,
2013-05-16 06:22:00,56.0,53.4,30.09,NW,326,0.0,0.0,91,0.00,CLR,OVC,0.00,WeatherDisplay:10.37,2013-05-16 10:22:00,
2013-05-16 06:27:00,55.9,53.3,30.09,NW,326,0.0,0.0,91,0.00,CLR,OVC,0.00,WeatherDisplay:10.37,2013-05-16 10:27:00,
2013-05-16 06:32:00,55.8,53.2,30.09,NW,326,0.0,0.0,91,0.00,CLR,OVC,0.00,WeatherDisplay:10.37,2013-05-16 10:32:00,
2013-05-16 06:37:00,55.7,53.1,30.09,NW,325,0.0,0.0,91,0.00,CLR,OVC,0.00,WeatherDisplay:10.37,2013-05-16 10:37:00,
2013-05-16 06:42:00,55.6,53.0,30.09,NW,326,0.0,0.0,91,0.00,CLR,OVC,0.00,WeatherDisplay:10.37,2013-05-16 10:42:00,
2013-05-16 06:47:00,55.8,53.2,30.10,NW,326,0.0,0.0,91,0.00,CLR,OVC,0.00,WeatherDisplay:10.37,2013-05-16 10:47:00,
2013-05-16 06:52:00,56.0,53.4,30.10,NW,326,0.0,0.0,91,0.00,CLR,OVC,0.00,WeatherDisplay:10.37,2013-05-16 10:52:00,
2013-05-16 06:57:00,56.0,53.4,30.10,SW,222,0.0,0.0,91,0.00,CLR,OVC,0.00,WeatherDisplay:10.37,2013-05-16 10:57:00,
2013-05-16 07:02:00,55.9,53.3,30.10,SW,230,1.1,0.0,91,0.00,CLR,OVC,0.00,WeatherDisplay:10.37,2013-05-16 11:02:00,
2013-05-16 07:07:00,55.9,53.3,30.11,South,187,0.0,0.0,91,0.00,CLR,OVC,0.00,WeatherDisplay:10.37,2013-05-16 11:07:00,
2013-05-16 07:12:00,56.0,53.4,30.11,South,187,0.0,0.0,91,0.00,CLR,OVC,0.00,WeatherDisplay:10.37,2013-05-16 11:12:00,
2013-05-16 07:17:00,56.1,53.5,30.11,South,187,1.1,0.0,91,0.00,CLR,OVC,0.00,WeatherDisplay:10.37,2013-05-16 11:17:00,
2013-05-16 07:22:00,56.3,53.7,30.12,South,187,0.0,0.0,91,0.00,CLR,OVC,0.00,WeatherDisplay:10.37,2013-05-16 11:22:00,
2013-05-16 07:27:00,56.6,54.0,30.12,SSW,212,1.1,0.0,91,0.00,CLR,OVC,0.00,WeatherDisplay:10.37,2013-05-16 11:27:00,
2013-05-16 07:32:00,56.8,54.2,30.12,SW,217,1.1,0.0,91,0.00,CLR,OVC,0.00,WeatherDisplay:10.37,2013-05-16 11:32:00,
2013-05-16 07:37:00,57.3,55.0,30.12,SW,226,1.1,1.1,92,0.00,CLR,OVC,0.00,WeatherDisplay:10.37,2013-05-16 11:37:00,
2013-05-16 07:42:00,57.8,55.5,30.12,SW,223,1.1,1.1,92,0.00,CLR,OVC,0.00,WeatherDisplay:10.37,2013-05-16 11:42:00,
2013-05-16 07:47:00,58.5,56.2,30.13,SW,222,1.1,1.1,92,0.00,CLR,OVC,0.00,WeatherDisplay:10.37,2013-05-16 11:47:00,
2013-05-16 07:52:00,59.4,57.1,30.13,SW,222,0.0,0.0,92,0.00,CLR,OVC,0.00,WeatherDisplay:10.37,2013-05-16 11:52:00,
2013-05-16 07:57:00,60.5,58.2,30.13,SW,222,0.0,0.0,92,0.00,CLR,OVC,0.00,WeatherDisplay:10.37,2013-05-16 11:57:00,
2013-05-16 08:02:00,61.5,59.2,30.13,SW,222,0.0,0.0,92,0.00,CLR,OVC,0.00,WeatherDisplay:10.37,2013-05-16 12:02:00,
2013-05-16 08:07:00,61.9,59.5,30.13,SW,222,0.0,0.0,92,0.00,CLR,OVC,0.00,WeatherDisplay:10.37,2013-05-16 12:07:00,
2013-05-16 08:12:00,62.6,60.2,30.13,SW,222,0.0,0.0,92,0.00,CLR,OVC,0.00,WeatherDisplay:10.37,2013-05-16 12:12:00,
2013-05-16 08:17:00,63.8,61.4,30.13,SW,222,0.0,0.0,92,0.00,CLR,OVC,0.00,WeatherDisplay:10.37,2013-05-16 12:17:00,
2013-05-16 08:22:00,64.8,62.1,30.14,SW,222,1.1,1.1,91,0.00,CLR,OVC,0.00,WeatherDisplay:10.37,2013-05-16 12:22:00,
2013-05-16 08:27:00,65.9,62.9,30.14,WNW,297,1.1,1.1,90,0.00,CLR,OVC,0.00,WeatherDisplay:10.37,2013-05-16 12:27:00,
2013-05-16 08:32:00,67.3,63.9,30.14,WNW,295,0.0,0.0,89,0.00,CLR,OVC,0.00,WeatherDisplay:10.37,2013-05-16 12:32:00,
2013-05-16 08:37:00,68.4,63.7,30.14,ESE,118,1.1,1.1,85,0.00,CLR,OVC,0.00,WeatherDisplay:10.37,2013-05-16 12:37:00,
2013-05-16 08:42:00,69.3,64.3,30.14,East,89,2.3,2.3,84,0.00,CLR,OVC,0.00,WeatherDisplay:10.37,2013-05-16 12:42:00,
2013-05-16 08:47:00,70.6,64.8,30.14,SE,145,1.1,1.1,82,0.00,CLR,OVC,0.00,WeatherDisplay:10.37,2013-05-16 12:47:00,
2013-05-16 08:52:00,71.2,64.7,30.14,SSW,211,2.3,2.3,80,0.00,CLR,OVC,0.00,WeatherDisplay:10.37,2013-05-16 12:52:00,
2013-05-16 08:57:00,71.6,64.7,30.15,SE,127,2.3,2.3,79,0.00,CLR,OVC,0.00,WeatherDisplay:10.37,2013-05-16 12:57:00,
2013-05-16 09:02:00,72.1,64.5,30.15,SSW,199,3.4,3.4,77,0.00,CLR,OVC,0.00,WeatherDisplay:10.37,2013-05-16 13:02:00,
2013-05-16 09:07:00,72.4,64.8,30.15,South,171,2.3,2.3,77,0.00,CLR,OVC,0.00,WeatherDisplay:10.37,2013-05-16 13:07:00,
2013-05-16 09:12:00,72.9,64.9,30.15,SSW,211,3.4,3.4,76,0.00,CLR,OVC,0.00,WeatherDisplay:10.37,2013-05-16 13:12:00,
2013-05-16 09:14:00,73.2,65.6,30.15,SSW,203,2.0,2.0,77,0.00,CLR,OVC,0.00,WeatherDisplay:10.37,2013-05-16 13:14:00,
2013-05-16 09:17:00,73.2,65.6,30.15,SSW,203,2.0,2.0,77,0.00,CLR,OVC,0.00,WeatherDisplay:10.37,2013-05-16 13:17:00,
2013-05-16 09:22:00,73.2,65.6,30.15,SSW,203,2.0,2.0,77,0.00,CLR,OVC,0.00,WeatherDisplay:10.37,2013-05-16 13:22:00,
2013-05-16 09:28:00,74.4,65.6,30.15,SSE,149,5.0,5.0,74,0.00,CLR,OVC,0.00,WeatherDisplay:10.37,2013-05-16 13:28:00,
2013-05-16 09:33:00,74.8,65.6,30.15,SE,137,3.4,3.4,73,0.00,CLR,OVC,0.00,WeatherDisplay:10.37,2013-05-16 13:33:00,
2013-05-16 09:38:00,75.2,65.6,30.15,ESE,121,3.4,4.2,72,0.00,CLR,OVC,0.00,WeatherDisplay:10.37,2013-05-16 13:38:00,
2013-05-16 09:43:00,75.5,65.8,30.15,SSW,203,3.4,3.4,72,0.00,CLR,OVC,0.00,WeatherDisplay:10.37,2013-05-16 13:43:00,
2013-05-16 09:48:00,75.9,65.0,30.15,South,176,8.1,8.1,69,0.00,CLR,OVC,0.00,WeatherDisplay:10.37,2013-05-16 13:48:00,
2013-05-16 09:53:00,76.2,65.3,30.15,South,187,2.3,2.3,69,0.00,CLR,OVC,0.00,WeatherDisplay:10.37,2013-05-16 13:53:00,
2013-05-16 09:58:00,76.6,65.7,30.15,South,169,3.4,3.4,69,0.00,CLR,OVC,0.00,WeatherDisplay:10.37,2013-05-16 13:58:00,
2013-05-16 10:03:00,76.7,64.9,30.15,SE,141,5.0,5.0,67,0.00,CLR,OVC,0.00,WeatherDisplay:10.37,2013-05-16 14:03:00,
2013-05-16 10:08:00,77.0,66.0,30.15,SSW,196,4.6,4.6,69,0.00,CLR,OVC,0.00,WeatherDisplay:10.37,2013-05-16 14:08:00,
2013-05-16 10:13:00,77.1,66.1,30.15,SSW,199,5.0,5.0,69,0.00,CLR,OVC,0.00,WeatherDisplay:10.37,2013-05-16 14:13:00,
2013-05-16 10:18:00,77.6,65.3,30.15,SSW,199,3.0,3.1,66,0.00,CLR,OVC,0.00,WeatherDisplay:10.37,2013-05-16 14:18:00,
2013-05-16 10:23:00,77.2,65.4,30.15,South,176,3.4,3.4,67,0.00,CLR,OVC,0.00,WeatherDisplay:10.37,2013-05-16 14:23:00,
2013-05-16 10:28:00,77.3,65.1,30.15,WSW,237,6.9,6.9,66,0.00,CLR,OVC,0.00,WeatherDisplay:10.37,2013-05-16 14:28:00,
2013-05-16 10:33:00,77.0,64.8,30.16,SW,219,4.6,4.6,66,0.00,CLR,OVC,0.00,WeatherDisplay:10.37,2013-05-16 14:33:00,
2013-05-16 10:38:00,77.1,64.4,30.16,WSW,248,4.6,4.6,65,0.00,CLR,OVC,0.00,WeatherDisplay:10.37,2013-05-16 14:38:00,
2013-05-16 10:43:00,77.5,64.8,30.16,South,184,5.8,5.8,65,0.00,CLR,OVC,0.00,WeatherDisplay:10.37,2013-05-16 14:43:00,
2013-05-16 10:48:00,77.7,65.0,30.15,SW,222,3.4,3.4,65,0.00,CLR,OVC,0.00,WeatherDisplay:10.37,2013-05-16 14:48:00,
2013-05-16 10:53:00,77.8,64.6,30.16,WSW,240,8.1,8.1,64,0.00,CLR,OVC,0.00,WeatherDisplay:10.37,2013-05-16 14:53:00,
2013-05-16 10:58:00,77.9,64.7,30.16,SSE,153,3.4,3.4,64,0.00,CLR,OVC,0.00,WeatherDisplay:10.37,2013-05-16 14:58:00,
2013-05-16 11:03:00,78.2,65.0,30.16,SW,236,3.0,3.0,64,0.00,CLR,OVC,0.00,WeatherDisplay:10.37,2013-05-16 15:03:00,
2013-05-16 11:08:00,78.3,65.1,30.16,SSW,202,3.4,3.4,64,0.00,CLR,OVC,0.00,WeatherDisplay:10.37,2013-05-16 15:08:00,
2013-05-16 11:13:00,78.6,64.5,30.16,ESE,110,2.3,2.3,62,0.00,CLR,OVC,0.00,WeatherDisplay:10.37,2013-05-16 15:13:00,
2013-05-16 11:18:00,79.2,65.5,30.16,NW,306,3.4,3.8,63,0.00,CLR,OVC,0.00,WeatherDisplay:10.37,2013-05-16 15:18:00,
2013-05-16 11:23:00,79.2,65.1,30.16,WSW,239,5.0,5.0,62,0.00,CLR,OVC,0.00,WeatherDisplay:10.37,2013-05-16 15:23:00,
2013-05-16 11:28:00,78.5,63.9,30.16,SSE,147,3.4,3.4,61,0.00,CLR,OVC,0.00,WeatherDisplay:10.37,2013-05-16 15:28:00,
2013-05-16 11:33:00,78.3,64.7,30.16,SSE,155,4.6,4.6,63,0.00,CLR,OVC,0.00,WeatherDisplay:10.37,2013-05-16 15:33:00,
2013-05-16 11:38:00,78.7,64.1,30.16,ESE,109,4.0,4.0,61,0.00,CLR,OVC,0.00,WeatherDisplay:10.37,2013-05-16 15:38:00,
2013-05-16 11:43:00,79.4,65.2,30.16,SSW,198,4.0,4.0,62,0.00,CLR,OVC,0.00,WeatherDisplay:10.37,2013-05-16 15:43:00,
2013-05-16 11:48:00,79.2,64.6,30.15,SSW,199,2.3,2.3,61,0.00,CLR,OVC,0.00,WeatherDisplay:10.37,2013-05-16 15:48:00,
2013-05-16 11:53:00,79.9,64.8,30.15,East,87,2.3,0.0,60,0.00,CLR,OVC,0.00,WeatherDisplay:10.37,2013-05-16 15:53:00,
2013-05-16 11:58:00,81.2,65.0,30.15,SSE,163,6.9,6.9,58,0.00,CLR,OVC,0.00,WeatherDisplay:10.37,2013-05-16 15:58:00,
2013-05-16 12:03:00,80.9,64.7,30.15,WSW,257,8.1,8.1,58,0.00,CLR,OVC,0.00,WeatherDisplay:10.37,2013-05-16 16:03:00,
2013-05-16 12:08:00,80.6,64.5,30.15,SSW,210,3.4,3.4,58,0.00,CLR,OVC,0.00,WeatherDisplay:10.37,2013-05-16 16:08:00,
2013-05-16 12:13:00,81.3,64.6,30.15,SSE,155,3.4,3.4,57,0.00,CLR,OVC,0.00,WeatherDisplay:10.37,2013-05-16 16:13:00,
2013-05-16 12:18:00,81.6,65.4,30.15,ESE,103,4.6,4.6,58,0.00,CLR,OVC,0.00,WeatherDisplay:10.37,2013-05-16 16:18:00,
2013-05-16 12:23:00,81.8,64.1,30.14,SE,135,5.8,5.8,55,0.00,CLR,OVC,0.00,WeatherDisplay:10.37,2013-05-16 16:23:00,
2013-05-16 12:28:00,82.0,63.2,30.14,NNW,329,3.4,3.4,53,0.00,CLR,OVC,0.00,WeatherDisplay:10.37,2013-05-16 16:28:00,
2013-05-16 12:33:00,82.4,63.0,30.14,East,91,2.3,2.3,52,0.00,CLR,OVC,0.00,WeatherDisplay:10.37,2013-05-16 16:33:00,
2013-05-16 12:38:00,82.4,63.5,30.14,SW,235,3.4,3.4,53,0.00,CLR,OVC,0.00,WeatherDisplay:10.37,2013-05-16 16:38:00,
2013-05-16 12:43:00,82.0,64.2,30.13,SSW,195,2.3,2.3,55,0.00,CLR,OVC,0.00,WeatherDisplay:10.37,2013-05-16 16:43:00,
2013-05-16 12:48:00,82.4,63.5,30.13,SSW,192,2.3,2.3,53,0.00,CLR,OVC,0.00,WeatherDisplay:10.37,2013-05-16 16:48:00,
2013-05-16 12:53:00,83.3,64.4,30.13,SSE,168,5.8,5.8,53,0.00,CLR,OVC,0.00,WeatherDisplay:10.37,2013-05-16 16:53:00,
2013-05-16 12:58:00,84.1,62.9,30.13,SW,230,4.6,4.6,49,0.00,CLR,OVC,0.00,WeatherDisplay:10.37,2013-05-16 16:58:00,
2013-05-16 13:03:00,84.7,63.4,30.13,East,83,3.4,3.4,49,0.00,CLR,OVC,0.00,WeatherDisplay:10.37,2013-05-16 17:03:00,
2013-05-16 13:08:00,84.3,62.5,30.13,NW,321,3.4,3.4,48,0.00,CLR,OVC,0.00,WeatherDisplay:10.37,2013-05-16 17:08:00,
2013-05-16 13:13:00,84.8,64.7,30.12,East,80,4.6,4.6,51,0.00,CLR,OVC,0.00,WeatherDisplay:10.37,2013-05-16 17:13:00,
2013-05-16 13:18:00,85.1,64.4,30.12,NNW,329,1.1,1.1,50,0.00,CLR,OVC,0.00,WeatherDisplay:10.37,2013-05-16 17:18:00,
2013-05-16 13:23:00,85.8,65.6,30.12,SW,222,3.4,3.4,51,0.00,CLR,OVC,0.00,WeatherDisplay:10.37,2013-05-16 17:23:00,
2013-05-16 13:28:00,84.8,64.7,30.11,WNW,295,3.0,3.0,51,0.00,CLR,OVC,0.00,WeatherDisplay:10.37,2013-05-16 17:28:00,
2013-05-16 13:33:00,84.8,61.7,30.11,WNW,296,2.3,2.3,46,0.00,CLR,OVC,0.00,WeatherDisplay:10.37,2013-05-16 17:33:00,
2013-05-16 13:38:00,86.1,64.1,30.11,North,357,3.4,3.4,48,0.00,CLR,OVC,0.00,WeatherDisplay:10.37,2013-05-16 17:38:00,
2013-05-16 13:43:00,86.2,63.6,30.11,NW,324,4.6,4.6,47,0.00,CLR,OVC,0.00,WeatherDisplay:10.37,2013-05-16 17:43:00,
2013-05-16 13:48:00,84.9,63.6,30.11,WSW,248,3.4,3.4,49,0.00,CLR,OVC,0.00,WeatherDisplay:10.37,2013-05-16 17:48:00,
2013-05-16 13:53:00,85.6,64.2,30.11,South,177,1.1,1.1,49,0.00,CLR,OVC,0.00,WeatherDisplay:10.37,2013-05-16 17:53:00,
2013-05-16 13:58:00,86.0,65.2,30.11,ESE,116,4.0,4.0,50,0.00,CLR,OVC,0.00,WeatherDisplay:10.37,2013-05-16 17:58:00,
2013-05-16 14:03:00,85.1,63.8,30.11,WNW,285,3.4,3.4,49,0.00,CLR,OVC,0.00,WeatherDisplay:10.37,2013-05-16 18:03:00,
2013-05-16 14:08:00,84.8,62.9,30.10,SSE,158,3.4,3.4,48,0.00,CLR,OVC,0.00,WeatherDisplay:10.37,2013-05-16 18:08:00,
2013-05-16 14:13:00,84.8,64.1,30.10,SSE,166,3.4,3.4,50,0.00,CLR,OVC,0.00,WeatherDisplay:10.37,2013-05-16 18:13:00,
2013-05-16 14:18:00,84.5,62.7,30.10,SW,230,4.6,4.6,48,0.00,CLR,OVC,0.00,WeatherDisplay:10.37,2013-05-16 18:18:00,
2013-05-16 14:23:00,84.3,63.6,30.10,SE,138,3.4,3.4,50,0.00,CLR,OVC,0.00,WeatherDisplay:10.37,2013-05-16 18:23:00,
2013-05-16 14:28:00,85.3,62.8,30.10,North,350,3.4,3.4,47,0.00,CLR,OVC,0.00,WeatherDisplay:10.37,2013-05-16 18:28:00,
2013-05-16 14:33:00,85.7,61.3,30.09,ENE,58,3.4,3.4,44,0.00,CLR,OVC,0.00,WeatherDisplay:10.37,2013-05-16 18:33:00,
2013-05-16 14:38:00,85.8,62.6,30.09,SE,135,6.0,6.0,46,0.00,CLR,OVC,0.00,WeatherDisplay:10.37,2013-05-16 18:38:00,
2013-05-16 14:43:00,86.3,61.8,30.09,ENE,78,3.4,3.4,44,0.00,CLR,OVC,0.00,WeatherDisplay:10.37,2013-05-16 18:43:00,
2013-05-16 14:48:00,86.8,61.6,30.09,SSE,158,3.4,3.4,43,0.00,CLR,OVC,0.00,WeatherDisplay:10.37,2013-05-16 18:48:00,
2013-05-16 14:53:00,86.6,61.4,30.08,ESE,116,4.6,4.6,43,0.00,CLR,OVC,0.00,WeatherDisplay:10.37,2013-05-16 18:53:00,
2013-05-16 14:58:00,86.0,60.2,30.08,ESE,104,5.0,5.0,42,0.00,CLR,OVC,0.00,WeatherDisplay:10.37,2013-05-16 18:58:00,
2013-05-16 15:03:00,85.7,60.0,30.08,SSE,158,3.4,3.4,42,0.00,CLR,OVC,0.00,WeatherDisplay:10.37,2013-05-16 19:03:00,
2013-05-16 15:08:00,85.9,62.1,30.08,SSE,157,3.4,3.4,45,0.00,CLR,OVC,0.00,WeatherDisplay:10.37,2013-05-16 19:08:00,
2013-05-16 15:13:00,85.8,62.6,30.08,East,83,4.6,4.6,46,0.00,CLR,OVC,0.00,WeatherDisplay:10.37,2013-05-16 19:13:00,
2013-05-16 15:18:00,85.8,62.0,30.07,SSE,168,2.3,2.3,45,0.00,CLR,OVC,0.00,WeatherDisplay:10.37,2013-05-16 19:18:00,
2013-05-16 15:23:00,86.7,63.4,30.07,ENE,71,2.3,2.3,46,0.00,CLR,OVC,0.00,WeatherDisplay:10.37,2013-05-16 19:23:00,
2013-05-16 15:28:00,87.4,63.5,30.07,SE,125,3.4,3.4,45,0.00,CLR,OVC,0.00,WeatherDisplay:10.37,2013-05-16 19:28:00,
2013-05-16 15:33:00,87.4,63.5,30.06,NNW,344,4.6,4.6,45,0.00,CLR,OVC,0.00,WeatherDisplay:10.37,2013-05-16 19:33:00,
2013-05-16 15:38:00,87.2,63.3,30.06,SE,135,5.8,5.8,45,0.00,CLR,OVC,0.00,WeatherDisplay:10.37,2013-05-16 19:38:00,
2013-05-16 15:43:00,86.9,63.6,30.06,East,100,6.0,6.0,46,0.00,CLR,OVC,0.00,WeatherDisplay:10.37,2013-05-16 19:43:00,
2013-05-16 15:48:00,87.3,64.0,30.06,SSE,160,6.9,6.9,46,0.00,CLR,OVC,0.00,WeatherDisplay:10.37,2013-05-16 19:48:00,
2013-05-16 15:53:00,86.6,62.1,30.06,SE,128,7.0,7.0,44,0.00,CLR,OVC,0.00,WeatherDisplay:10.37,2013-05-16 19:53:00,
2013-05-16 15:58:00,86.0,63.4,30.06,SSE,155,4.6,4.6,47,0.00,CLR,OVC,0.00,WeatherDisplay:10.37,2013-05-16 19:58:00,
2013-05-16 16:03:00,86.2,63.6,30.05,ESE,110,2.3,2.3,47,0.00,CLR,OVC,0.00,WeatherDisplay:10.37,2013-05-16 20:03:00,
2013-05-16 16:08:00,86.9,63.6,30.05,SSE,149,8.1,8.1,46,0.00,CLR,OVC,0.00,WeatherDisplay:10.37,2013-05-16 20:08:00,
2013-05-16 16:09:00,86.6,64.0,30.05,SSE,154,7.0,7.0,47,0.00,CLR,OVC,0.00,WeatherDisplay:10.37,2013-05-16 20:09:00,
2013-05-16 16:13:00,86.6,64.0,30.05,SSE,154,7.0,7.0,47,0.00,CLR,OVC,0.00,WeatherDisplay:10.37,2013-05-16 20:13:00,
2013-05-16 16:18:00,86.6,64.0,30.05,SSE,154,7.0,7.0,47,0.00,CLR,OVC,0.00,WeatherDisplay:10.37,2013-05-16 20:18:00,
2013-05-16 16:23:00,86.3,63.7,30.05,SSE,151,5.0,5.0,47,0.00,CLR,OVC,0.00,WeatherDisplay:10.37,2013-05-16 20:23:00,
2013-05-16 16:28:00,86.5,64.5,30.04,SSE,156,4.6,4.6,48,0.00,CLR,OVC,0.00,WeatherDisplay:10.37,2013-05-16 20:28:00,
2013-05-16 16:33:00,86.6,63.4,30.04,NNE,21,6.9,6.9,46,0.00,CLR,OVC,0.00,WeatherDisplay:10.37,2013-05-16 20:33:00,
2013-05-16 16:38:00,86.2,63.0,30.04,NW,321,1.1,1.1,46,0.00,CLR,OVC,0.00,WeatherDisplay:10.37,2013-05-16 20:38:00,
2013-05-16 16:43:00,86.1,62.3,30.04,South,171,6.9,6.9,45,0.00,CLR,OVC,0.00,WeatherDisplay:10.37,2013-05-16 20:43:00,
2013-05-16 16:48:00,86.3,62.5,30.04,NNW,334,4.6,4.6,45,0.00,CLR,OVC,0.00,WeatherDisplay:10.37,2013-05-16 20:48:00,
2013-05-16 16:53:00,87.0,62.5,30.04,SE,135,3.4,3.4,44,0.00,CLR,OVC,0.00,WeatherDisplay:10.37,2013-05-16 20:53:00,
2013-05-16 16:58:00,86.8,59.6,30.04,ESE,102,5.8,5.8,40,0.00,CLR,OVC,0.00,WeatherDisplay:10.37,2013-05-16 20:58:00,
2013-05-16 17:03:00,87.4,60.1,30.04,SSE,166,3.4,3.4,40,0.00,CLR,OVC,0.00,WeatherDisplay:10.37,2013-05-16 21:03:00,
2013-05-16 17:08:00,86.7,57.3,30.04,ENE,61,4.6,4.6,37,0.00,CLR,OVC,0.00,WeatherDisplay:10.37,2013-05-16 21:08:00,
2013-05-16 17:13:00,86.3,57.7,30.03,ENE,61,3.4,3.4,38,0.00,CLR,OVC,0.00,WeatherDisplay:10.37,2013-05-16 21:13:00,
2013-05-16 17:18:00,85.9,58.1,30.03,NNW,348,4.6,4.6,39,0.00,CLR,OVC,0.00,WeatherDisplay:10.37,2013-05-16 21:18:00,
2013-05-16 17:23:00,85.8,59.4,30.03,SE,124,3.4,3.4,41,0.00,CLR,OVC,0.00,WeatherDisplay:10.37,2013-05-16 21:23:00,
2013-05-16 17:28:00,85.1,58.8,30.03,ESE,123,3.4,3.4,41,0.00,CLR,OVC,0.00,WeatherDisplay:10.37,2013-05-16 21:28:00,
2013-05-16 17:33:00,85.0,59.3,30.03,NNW,331,2.3,2.3,42,0.00,CLR,OVC,0.00,WeatherDisplay:10.37,2013-05-16 21:33:00,
2013-05-16 17:38:00,85.8,60.7,30.03,SSE,163,3.4,3.4,43,0.00,CLR,OVC,0.00,WeatherDisplay:10.37,2013-05-16 21:38:00,
2013-05-16 17:43:00,85.8,60.1,30.03,ENE,73,2.3,2.3,42,0.00,CLR,OVC,0.00,WeatherDisplay:10.37,2013-05-16 21:43:00,
2013-05-16 17:48:00,85.8,58.0,30.03,ESE,116,5.8,5.8,39,0.00,CLR,OVC,0.00,WeatherDisplay:10.37,2013-05-16 21:48:00,
2013-05-16 17:53:00,85.5,59.1,30.03,East,80,5.8,5.8,41,0.00,CLR,OVC,0.00,WeatherDisplay:10.37,2013-05-16 21:53:00,
2013-05-16 17:58:00,85.1,60.1,30.03,East,89,3.4,3.4,43,0.00,CLR,OVC,0.00,WeatherDisplay:10.37,2013-05-16 21:58:00,
2013-05-16 18:03:00,85.0,60.6,30.03,SSE,147,3.4,3.4,44,0.00,CLR,OVC,0.00,WeatherDisplay:10.37,2013-05-16 22:03:00,
2013-05-16 18:08:00,84.7,64.6,30.03,ENE,66,5.0,5.0,51,0.00,CLR,OVC,0.00,WeatherDisplay:10.37,2013-05-16 22:08:00,
2013-05-16 18:13:00,84.1,64.6,30.03,ESE,117,6.0,6.0,52,0.00,CLR,OVC,0.00,WeatherDisplay:10.37,2013-05-16 22:13:00,
2013-05-16 18:18:00,83.4,65.0,30.03,ESE,117,4.6,4.6,54,0.00,CLR,OVC,0.00,WeatherDisplay:10.37,2013-05-16 22:18:00,
2013-05-16 18:23:00,83.0,65.2,30.03,NNE,18,5.8,5.8,55,0.00,CLR,OVC,0.00,WeatherDisplay:10.37,2013-05-16 22:23:00,
2013-05-16 18:28:00,82.5,64.7,30.03,SE,124,4.6,4.6,55,0.00,CLR,OVC,0.00,WeatherDisplay:10.37,2013-05-16 22:28:00,
2013-05-16 18:33:00,82.2,64.9,30.03,North,358,3.0,3.0,56,0.00,CLR,OVC,0.00,WeatherDisplay:10.37,2013-05-16 22:33:00,
2013-05-16 18:38:00,81.8,64.6,30.03,South,189,8.1,8.1,56,0.00,CLR,OVC,0.00,WeatherDisplay:10.37,2013-05-16 22:38:00,
2013-05-16 18:43:00,81.4,64.7,30.03,ENE,59,4.6,4.6,57,0.00,CLR,OVC,0.00,WeatherDisplay:10.37,2013-05-16 22:43:00,
2013-05-16 18:48:00,81.0,64.8,30.03,ESE,102,5.8,5.8,58,0.00,CLR,OVC,0.00,WeatherDisplay:10.37,2013-05-16 22:48:00,
2013-05-16 18:53:00,80.7,65.0,30.03,East,95,5.8,5.8,59,0.00,CLR,OVC,0.00,WeatherDisplay:10.37,2013-05-16 22:53:00,
2013-05-16 18:58:00,80.5,63.9,30.03,SE,140,8.1,8.1,57,0.00,CLR,OVC,0.00,WeatherDisplay:10.37,2013-05-16 22:58:00,
2013-05-16 19:03:00,80.3,64.2,30.03,SE,140,6.9,6.9,58,0.00,CLR,OVC,0.00,WeatherDisplay:10.37,2013-05-16 23:03:00,
2013-05-16 19:08:00,80.3,64.2,30.03,ESE,110,5.8,5.8,58,0.00,CLR,OVC,0.00,WeatherDisplay:10.37,2013-05-16 23:08:00,
2013-05-16 19:13:00,80.0,63.4,30.03,ESE,106,6.9,6.9,57,0.00,CLR,OVC,0.00,WeatherDisplay:10.37,2013-05-16 23:13:00,
2013-05-16 19:18:00,79.7,63.1,30.03,NE,46,2.3,2.3,57,0.00,CLR,OVC,0.00,WeatherDisplay:10.37,2013-05-16 23:18:00,
2013-05-16 19:23:00,79.5,62.4,30.03,SSE,161,4.6,4.6,56,0.00,CLR,OVC,0.00,WeatherDisplay:10.37,2013-05-16 23:23:00,
2013-05-16 19:28:00,79.3,61.7,30.03,ESE,120,3.4,3.4,55,0.00,CLR,OVC,0.00,WeatherDisplay:10.37,2013-05-16 23:28:00,
2013-05-16 19:33:00,79.0,61.5,30.03,ESE,108,3.4,3.4,55,0.00,CLR,OVC,0.00,WeatherDisplay:10.37,2013-05-16 23:33:00,
2013-05-16 19:38:00,78.6,61.1,30.03,East,97,4.6,4.6,55,0.00,CLR,OVC,0.00,WeatherDisplay:10.37,2013-05-16 23:38:00,
2013-05-16 19:43:00,78.3,61.3,30.04,NE,46,3.4,3.4,56,0.00,CLR,OVC,0.00,WeatherDisplay:10.37,2013-05-16 23:43:00,
2013-05-16 19:48:00,78.0,61.0,30.04,SSE,149,3.0,3.0,56,0.00,CLR,OVC,0.00,WeatherDisplay:10.37,2013-05-16 23:48:00,
2013-05-16 19:53:00,77.6,61.2,30.04,SE,142,5.8,5.8,57,0.00,CLR,OVC,0.00,WeatherDisplay:10.37,2013-05-16 23:53:00,
2013-05-16 19:58:00,77.3,60.9,30.04,East,100,4.6,4.6,57,0.00,CLR,OVC,0.00,WeatherDisplay:10.37,2013-05-16 23:58:00,
2013-05-16 20:03:00,77.1,61.2,30.04,ESE,102,1.1,1.1,58,0.00,CLR,OVC,0.00,WeatherDisplay:10.37,2013-05-17 00:03:00,
2013-05-16 20:08:00,76.7,61.3,30.04,NE,40,2.3,2.3,59,0.00,CLR,OVC,0.00,WeatherDisplay:10.37,2013-05-17 00:08:00,
2013-05-16 20:13:00,76.4,61.0,30.04,SE,125,1.0,1.0,59,0.00,CLR,OVC,0.00,WeatherDisplay:10.37,2013-05-17 00:13:00,
2013-05-16 20:18:00,76.1,60.7,30.05,SE,141,3.4,3.4,59,0.00,CLR,OVC,0.00,WeatherDisplay:10.37,2013-05-17 00:18:00,
2013-05-16 20:23:00,76.0,60.6,30.05,ENE,69,4.6,4.6,59,0.00,CLR,OVC,0.00,WeatherDisplay:10.37,2013-05-17 00:23:00,
2013-05-16 20:28:00,75.8,60.4,30.05,East,90,3.4,3.4,59,0.00,CLR,OVC,0.00,WeatherDisplay:10.37,2013-05-17 00:28:00,
2013-05-16 20:33:00,75.7,60.8,30.05,ESE,111,3.4,3.4,60,0.00,CLR,OVC,0.00,WeatherDisplay:10.37,2013-05-17 00:33:00,
2013-05-16 20:38:00,75.7,60.8,30.05,ESE,113,5.8,5.8,60,0.00,CLR,OVC,0.00,WeatherDisplay:10.37,2013-05-17 00:38:00,
2013-05-16 20:43:00,75.5,61.1,30.05,East,98,1.1,1.1,61,0.00,CLR,OVC,0.00,WeatherDisplay:10.37,2013-05-17 00:43:00,
2013-05-16 20:48:00,75.3,60.9,30.05,NE,56,4.6,4.6,61,0.00,CLR,OVC,0.00,WeatherDisplay:10.37,2013-05-17 00:48:00,
2013-05-16 20:53:00,75.2,61.3,30.06,ESE,107,3.4,3.4,62,0.00,CLR,OVC,0.00,WeatherDisplay:10.37,2013-05-17 00:53:00,
2013-05-16 20:58:00,75.0,61.5,30.06,NE,42,2.3,2.3,63,0.00,CLR,OVC,0.00,WeatherDisplay:10.37,2013-05-17 00:58:00,
2013-05-16 21:03:00,74.8,61.4,30.06,NNE,21,2.3,2.3,63,0.00,CLR,OVC,0.00,WeatherDisplay:10.37,2013-05-17 01:03:00,
2013-05-16 21:08:00,74.5,61.5,30.06,East,83,3.4,3.4,64,0.00,CLR,OVC,0.00,WeatherDisplay:10.37,2013-05-17 01:08:00,
2013-05-16 21:13:00,74.2,61.7,30.06,North,2,3.4,3.4,65,0.00,CLR,OVC,0.00,WeatherDisplay:10.37,2013-05-17 01:13:00,
2013-05-16 21:18:00,74.0,61.9,30.06,NE,47,3.0,3.0,66,0.00,CLR,OVC,0.00,WeatherDisplay:10.37,2013-05-17 01:18:00,
2013-05-16 21:23:00,73.9,61.8,30.06,ESE,116,7.0,7.0,66,0.00,CLR,OVC,0.00,WeatherDisplay:10.37,2013-05-17 01:23:00,
2013-05-16 21:28:00,73.7,62.1,30.06,SE,142,3.0,3.0,67,0.00,CLR,OVC,0.00,WeatherDisplay:10.37,2013-05-17 01:28:00,
2013-05-16 21:33:00,73.5,62.3,30.06,ESE,106,2.3,2.3,68,0.00,CLR,OVC,0.00,WeatherDisplay:10.37,2013-05-17 01:33:00,
2013-05-16 21:38:00,73.4,62.2,30.06,NE,50,3.0,3.0,68,0.00,CLR,OVC,0.00,WeatherDisplay:10.37,2013-05-17 01:38:00,
2013-05-16 21:43:00,73.3,62.5,30.06,ESE,109,3.4,3.4,69,0.00,CLR,OVC,0.00,WeatherDisplay:10.37,2013-05-17 01:43:00,
2013-05-16 21:48:00,73.2,62.4,30.07,ESE,117,7.0,7.0,69,0.00,CLR,OVC,0.00,WeatherDisplay:10.37,2013-05-17 01:48:00,
2013-05-16 21:53:00,73.1,62.7,30.07,NE,47,2.3,2.3,70,0.00,CLR,OVC,0.00,WeatherDisplay:10.37,2013-05-17 01:53:00,
2013-05-16 21:58:00,73.0,62.6,30.07,ESE,117,3.4,3.4,70,0.00,CLR,OVC,0.00,WeatherDisplay:10.37,2013-05-17 01:58:00,
2013-05-16 22:03:00,72.8,62.8,30.07,SE,140,4.0,4.0,71,0.00,CLR,OVC,0.00,WeatherDisplay:10.37,2013-05-17 02:03:00,
2013-05-16 22:08:00,72.6,62.7,30.08,SE,129,4.0,4.0,71,0.00,CLR,OVC,0.00,WeatherDisplay:10.37,2013-05-17 02:08:00,
2013-05-16 22:13:00,72.5,63.0,30.08,SE,135,2.3,2.3,72,0.00,CLR,OVC,0.00,WeatherDisplay:10.37,2013-05-17 02:13:00,
2013-05-16 22:18:00,72.2,63.1,30.08,ESE,110,3.4,3.4,73,0.00,CLR,OVC,0.00,WeatherDisplay:10.37,2013-05-17 02:18:00,
2013-05-16 22:23:00,72.0,62.9,30.08,SSE,149,3.4,3.4,73,0.00,CLR,OVC,0.00,WeatherDisplay:10.37,2013-05-17 02:23:00,
2013-05-16 22:28:00,71.8,63.1,30.08,ESE,120,3.4,3.4,74,0.00,CLR,OVC,0.00,WeatherDisplay:10.37,2013-05-17 02:28:00,
2013-05-16 22:33:00,71.6,62.9,30.08,ESE,117,2.3,2.3,74,0.00,CLR,OVC,0.00,WeatherDisplay:10.37,2013-05-17 02:33:00,
2013-05-16 22:38:00,71.5,63.2,30.08,ESE,120,2.3,2.3,75,0.00,CLR,OVC,0.00,WeatherDisplay:10.37,2013-05-17 02:38:00,
2013-05-16 22:43:00,71.3,63.0,30.08,East,97,2.3,2.3,75,0.00,CLR,OVC,0.00,WeatherDisplay:10.37,2013-05-17 02:43:00,
2013-05-16 22:48:00,71.2,63.2,30.08,East,96,1.1,1.1,76,0.00,CLR,OVC,0.00,WeatherDisplay:10.37,2013-05-17 02:48:00,
2013-05-16 22:53:00,71.0,63.1,30.09,SE,128,2.3,2.3,76,0.00,CLR,OVC,0.00,WeatherDisplay:10.37,2013-05-17 02:53:00,
2013-05-16 22:58:00,70.7,62.8,30.09,SE,128,0.0,0.0,76,0.00,CLR,OVC,0.00,WeatherDisplay:10.37,2013-05-17 02:58:00,
2013-05-16 23:03:00,70.3,62.7,30.09,SE,128,0.0,0.0,77,0.00,CLR,OVC,0.00,WeatherDisplay:10.37,2013-05-17 03:03:00,
2013-05-16 23:04:00,70.1,62.9,30.09,SE,128,0.0,0.0,78,0.00,CLR,OVC,0.00,WeatherDisplay:10.37,2013-05-17 03:04:00,
2013-05-16 23:08:00,70.1,62.9,30.09,SE,128,0.0,0.0,78,0.00,CLR,OVC,0.00,WeatherDisplay:10.37,2013-05-17 03:08:00,
2013-05-16 23:13:00,70.1,62.9,30.09,SE,128,0.0,0.0,78,0.00,CLR,OVC,0.00,WeatherDisplay:10.37,2013-05-17 03:13:00,
2013-05-16 23:18:00,69.2,62.8,30.09,SE,131,2.0,2.0,80,0.00,CLR,OVC,0.00,WeatherDisplay:10.37,2013-05-17 03:18:00,
2013-05-16 23:23:00,69.5,63.1,30.10,SE,127,1.1,1.1,80,0.00,CLR,OVC,0.00,WeatherDisplay:10.37,2013-05-17 03:23:00,
2013-05-16 23:28:00,69.5,63.1,30.09,SE,127,0.0,0.0,80,0.00,CLR,OVC,0.00,WeatherDisplay:10.37,2013-05-17 03:28:00,
2013-05-16 23:33:00,69.2,62.8,30.09,SE,127,0.0,0.0,80,0.00,CLR,OVC,0.00,WeatherDisplay:10.37,2013-05-17 03:33:00,
2013-05-16 23:38:00,68.8,62.7,30.09,SE,127,0.0,0.0,81,0.00,CLR,OVC,0.00,WeatherDisplay:10.37,2013-05-17 03:38:00,
2013-05-16 23:43:00,68.3,62.2,30.09,SE,127,1.1,0.0,81,0.00,CLR,OVC,0.00,WeatherDisplay:10.37,2013-05-17 03:43:00,
2013-05-16 23:48:00,68.1,62.4,30.09,SE,127,0.0,0.0,82,0.00,CLR,OVC,0.00,WeatherDisplay:10.37,2013-05-17 03:48:00,
2013-05-16 23:53:00,68.1,62.4,30.09,SE,130,1.1,1.1,82,0.00,CLR,OVC,0.00,WeatherDisplay:10.37,2013-05-17 03:53:00,
2013-05-16 23:58:00,68.3,62.6,30.09,SE,137,2.3,2.3,82,0.00,CLR,OVC,0.00,WeatherDisplay:10.37,2013-05-17 03:58:00,